User: anonymous   Login
Location: Vancouver
(49.2500°N, 123.1330°W)
Time: 13:55:03
(UTC-07:00)
Language:

ERS-2 - Orbit

View from above orbital plane
View from above orbital plane
View from above satellite
View from above satellite

Ground track
Ground track

The orbit data is extracted from the following two-line orbital elements,

1 23560U 95021A   18115.74467655  .00001312  00000-0  61924-4 0  9996
2 23560  98.5418 155.3075 0002869 344.4887  15.6257 15.21664543222900
Epoch (UTC): 25 April 2018 17:52:20
Eccentricity: 0.0002869
inclination: 98.5418°
perigee height: 499 km
apogee height: 503 km
right ascension of ascending node: 155.3075°
argument of perigee: 344.4887°
revolutions per day: 15.21664543
mean anomaly at epoch: 15.6257°
orbit number at epoch: 22290

The dashed part of the orbit path shows where the satellite is in the earth's shadow,  

DLR